Location: Mana�l
(15.0115°N, 12.5022°W)
Time: 12:24:01
(UTC+00:00)

H-2A R/B - Pass Details

Date: 07 June 2020
Orbit: 577 x 655 km, 98.5° (Epoch: 05 July)

Event Time Altitude Azimuth Distance (km) Brightness Sun altitude
Exits shadow 04:51:27 45° 254° (WSW) 858 2.3 -19.7°
Maximum altitude 04:51:34 45° 259° (W) 857 2.3 -19.6°
Drops below altitude 10° 04:55:47 10° 332° (NNW) 2,024 4.7 -18.8°
Sets 04:58:05 0° 339° (NNW) 2,944 5.7 -18.3°
